Change the Weather History Date:

Tuesday, March 19, 2013

  Actual Average Record
Temperature  
Mean Temperature 56 °F -  
Max Temperature 71 °F 62 °F 77 °F (2008)
Min Temperature 42 °F 42 °F 26 °F (2007)
Degree Days  
Heating Degree Days 9    
Growing Degree Days 6 (Base 50)    
Moisture  
Dew Point 40 °F    
Average Humidity 76    
Maximum Humidity 100    
Minimum Humidity 13    
Precipitation  
Precipitation 0.01 in - - ()
Sea Level Pressure  
Sea Level Pressure 29.87 in    
Wind  
Wind Speed 7 mph (WNW)    
Max Wind Speed 21 mph    
Max Gust Speed 25 mph    
Visibility 10 miles    
Events Rain    
Averages and records for this station are not official NWS values.
T = Trace of Precipitation, MM = Missing Value Source: NWS Daily Summary

Daily Weather History Graph

Daily Weather History Graph

Search for Another Location

Airport or City:

Trip Planner

Search our weather history database for the weather conditions in past years. The results will help you decide how hot, cold, wet, or windy it might be!

Date:

Astronomy

Mar. 19, 2013 Rise Set
Actual Time 7:20 AM EDT 7:26 PM EDT
Civil Twilight 6:55 AM EDT 7:52 PM EDT
Nautical Twilight 6:25 AM EDT 8:21 PM EDT
Astronomical Twilight 5:55 AM EDT 8:51 PM EDT
Moon 12:21 PM EDT (3/19) 2:00 AM EDT (3/19)
Length of Visible Light 12h 56m
Length of Day
12h 06m
Waxing Crescent, 49% of the Moon is Illuminated
Mar 19
Waxing Crescent
Mar 19
First Quarter
Mar 27
Full
Apr 3
Last Quarter
Apr 10
New

Hourly Weather History & Observations

Time (EDT) Temp. Windchill Dew Point Humidity Pressure Visibility Wind Dir Wind Speed Gust Speed Precip Events Conditions
12:10 AM 42.8 °F 41.1 °F 42.8 °F 100% 29.91 in 10.0 mi NE 3.5 mph - N/A Rain Light Rain
12:28 AM 42.8 °F 39.3 °F 42.8 °F 100% 29.88 in 10.0 mi ENE 5.8 mph - N/A   Mostly Cloudy
12:44 AM 42.8 °F 39.3 °F 42.8 °F 100% 29.85 in 10.0 mi East 5.8 mph - N/A   Mostly Cloudy
12:58 AM 42.8 °F 40.1 °F 42.3 °F 98% 29.86 in 10.0 mi SE 4.6 mph - 0.01 in   Mostly Cloudy
1:18 AM 42.8 °F 40.1 °F 42.8 °F 100% 29.84 in 10.0 mi ESE 4.6 mph - N/A   Overcast
1:58 AM 43.5 °F - 43.3 °F 99% 29.85 in 10.0 mi Calm Calm - N/A   Overcast
2:12 AM 44.6 °F - 42.8 °F 93% 29.84 in 10.0 mi Calm Calm - N/A   Overcast
2:52 AM 44.6 °F 40.7 °F 44.6 °F 100% 29.83 in 10.0 mi NW 6.9 mph - N/A   Overcast
2:58 AM 44.2 °F 40.3 °F 44.1 °F 99% 29.84 in 10.0 mi NW 6.9 mph - N/A   Overcast
3:08 AM 44.6 °F 40.7 °F 42.8 °F 93% 29.82 in 10.0 mi NW 6.9 mph - N/A   Overcast
3:34 AM 44.6 °F 41.4 °F 42.8 °F 93% 29.82 in 10.0 mi NW 5.8 mph - N/A   Overcast
3:40 AM 44.6 °F 41.4 °F 42.8 °F 93% 29.82 in 10.0 mi NW 5.8 mph - N/A   Overcast
3:58 AM 43.9 °F 41.3 °F 43.7 °F 99% 29.82 in 10.0 mi NNW 4.6 mph - N/A   Overcast
4:30 AM 44.6 °F 40.7 °F 44.6 °F 100% 29.81 in 10.0 mi NW 6.9 mph - N/A   Overcast
4:44 AM 44.6 °F 41.4 °F 44.6 °F 100% 29.82 in 10.0 mi NW 5.8 mph - N/A   Overcast
4:58 AM 44.2 °F 41.0 °F 44.1 °F 99% 29.83 in 10.0 mi NW 5.8 mph - N/A   Overcast
5:00 AM 44.6 °F 40.7 °F 44.6 °F 100% 29.82 in 10.0 mi NW 6.9 mph - N/A   Overcast
5:02 AM 44.6 °F 41.4 °F 44.6 °F 100% 29.82 in 10.0 mi WNW 5.8 mph - N/A   Overcast
5:54 AM 44.6 °F 40.7 °F 44.6 °F 100% 29.84 in 10.0 mi NW 6.9 mph - N/A   Overcast
5:58 AM 45.0 °F 41.8 °F 44.8 °F 99% 29.85 in 10.0 mi NW 5.8 mph - N/A   Overcast
6:06 AM 44.6 °F 40.7 °F 44.6 °F 100% 29.84 in 10.0 mi NW 6.9 mph - N/A   Overcast
6:22 AM 44.6 °F 40.7 °F 44.6 °F 100% 29.84 in 10.0 mi NW 6.9 mph - N/A   Overcast
6:32 AM 44.6 °F 42.2 °F 44.6 °F 100% 29.84 in 7.0 mi NW 4.6 mph - N/A   Overcast
6:58 AM 44.8 °F 42.4 °F 44.4 °F 99% 29.85 in 7.0 mi NW 4.6 mph - N/A   Overcast
7:38 AM 44.6 °F 42.2 °F 44.6 °F 100% 29.86 in 10.0 mi West 4.6 mph - N/A   Overcast
7:54 AM 44.6 °F 41.4 °F 44.6 °F 100% 29.86 in 7.0 mi WSW 5.8 mph - N/A   Overcast
7:58 AM 45.1 °F 42.8 °F 45.0 °F 99% 29.87 in 7.0 mi West 4.6 mph - N/A   Overcast
8:18 AM 46.4 °F 42.4 °F 44.6 °F 93% 29.87 in 10.0 mi WSW 8.1 mph - N/A   Overcast
8:32 AM 46.4 °F 42.4 °F 44.6 °F 93% 29.88 in 10.0 mi WSW 8.1 mph - N/A   Overcast
8:58 AM 45.9 °F 42.3 °F 45.7 °F 99% 29.88 in 10.0 mi SW 6.9 mph - N/A   Overcast
9:06 AM 46.4 °F 42.9 °F 46.4 °F 100% 29.88 in 10.0 mi WSW 6.9 mph - N/A   Overcast
9:28 AM 48.2 °F - 46.4 °F 93% 29.90 in 10.0 mi West 8.1 mph - N/A   Overcast
9:38 AM 48.2 °F - 48.2 °F 100% 29.89 in 10.0 mi West 10.4 mph - N/A   Overcast
9:44 AM 48.2 °F - 48.2 °F 100% 29.89 in 10.0 mi West 10.4 mph - N/A   Overcast
9:58 AM 48.9 °F - 48.0 °F 97% 29.90 in 10.0 mi WSW 9.2 mph - N/A   Overcast
10:36 AM 50.0 °F - 48.2 °F 94% 29.91 in 10.0 mi WNW 11.5 mph - N/A   Overcast
10:58 AM 52.3 °F - 47.8 °F 85% 29.92 in 10.0 mi WNW 9.2 mph - N/A   Mostly Cloudy
11:12 AM 53.6 °F - 46.4 °F 77% 29.91 in 10.0 mi WNW 10.4 mph - N/A   Scattered Clouds
11:58 AM 58.1 °F - 46.9 °F 66% 29.92 in 10.0 mi WNW 11.5 mph 18.4 mph N/A   Clear
12:58 PM 62.6 °F - 40.5 °F 44% 29.91 in 10.0 mi WNW 12.7 mph 21.9 mph N/A   Clear
1:58 PM 66.9 °F - 33.1 °F 28% 29.88 in 10.0 mi WNW 13.8 mph - N/A   Clear
2:58 PM 69.1 °F - 31.6 °F 25% 29.87 in 10.0 mi WNW 13.8 mph 23.0 mph N/A   Clear
3:09 PM 69.8 °F - 32.0 °F 25% 29.86 in 10.0 mi WNW 12.7 mph 19.6 mph N/A   Clear
3:58 PM 70.3 °F - 31.5 °F 24% 29.86 in 10.0 mi WNW 10.4 mph - N/A   Clear
4:21 PM 69.8 °F - 26.6 °F 20% 29.85 in 10.0 mi WNW 13.8 mph - N/A   Clear
4:58 PM 70.9 °F - 29.3 °F 21% 29.87 in 10.0 mi WNW 16.1 mph 21.9 mph N/A   Clear
5:18 PM 69.8 °F - 21.2 °F 16% 29.87 in 10.0 mi West 16.1 mph - N/A   Clear
5:58 PM 68.9 °F - 16.3 °F 13% 29.90 in 10.0 mi WNW 20.7 mph 25.3 mph N/A   Clear
6:58 PM 65.7 °F - 18.7 °F 17% 29.92 in 10.0 mi NW 10.4 mph - N/A   Clear
7:58 PM 61.0 °F - 22.5 °F 23% 29.94 in 10.0 mi West 6.9 mph - N/A   Clear
8:58 PM 58.8 °F - 24.3 °F 27% 29.97 in 10.0 mi Variable 4.6 mph - N/A   Clear
9:58 PM 56.1 °F - 21.9 °F 27% 29.99 in 10.0 mi WNW 8.1 mph - N/A   Clear
10:58 PM 54.0 °F - 21.0 °F 28% 30.00 in 10.0 mi NW 8.1 mph - N/A   Clear
11:58 PM 52.3 °F - 21.2 °F 30% 30.01 in 10.0 mi NW 8.1 mph - N/A   Clear